Year,Month,Day,Hour,Minute,Value (Times are PST for temperature in C)
2016,05,31,00,00,12.50
2016,05,31,00,01,12.50
2016,05,31,00,02,12.50
2016,05,31,00,03,12.50
2016,05,31,00,04,12.50
2016,05,31,00,05,12.50
2016,05,31,00,06,12.50
2016,05,31,00,07,12.50
2016,05,31,00,08,12.50
2016,05,31,00,09,12.50
2016,05,31,00,10,12.50
2016,05,31,00,11,12.50
2016,05,31,00,12,12.60
2016,05,31,00,13,12.60
2016,05,31,00,14,12.60
2016,05,31,00,15,12.70
2016,05,31,00,16,12.70
2016,05,31,00,17,12.70
2016,05,31,00,18,12.80
2016,05,31,00,19,12.80
2016,05,31,00,20,12.80
2016,05,31,00,21,12.80
2016,05,31,00,22,12.80
2016,05,31,00,23,12.70
2016,05,31,00,24,12.70
2016,05,31,00,25,12.70
2016,05,31,00,26,12.60
2016,05,31,00,27,12.60
2016,05,31,00,28,12.70
2016,05,31,00,29,12.70
2016,05,31,00,30,12.70
2016,05,31,00,31,12.80
2016,05,31,00,32,12.80
2016,05,31,00,33,12.80
2016,05,31,00,34,12.80
2016,05,31,00,35,12.80
2016,05,31,00,36,12.80
2016,05,31,00,37,12.90
2016,05,31,00,38,12.90
2016,05,31,00,39,12.90
2016,05,31,00,40,12.90
2016,05,31,00,41,12.90
2016,05,31,00,42,12.90
2016,05,31,00,43,12.90
2016,05,31,00,44,12.80
2016,05,31,00,45,12.80
2016,05,31,00,46,12.80
2016,05,31,00,47,12.80
2016,05,31,00,48,12.80
2016,05,31,00,49,12.80
2016,05,31,00,50,12.80
2016,05,31,00,51,12.70
2016,05,31,00,52,12.70
2016,05,31,00,53,12.60
2016,05,31,00,54,12.60
2016,05,31,00,55,12.60
2016,05,31,00,56,12.50
2016,05,31,00,57,12.50
2016,05,31,00,58,12.50
2016,05,31,00,59,12.40
2016,05,31,01,00,12.30
2016,05,31,01,01,12.30
2016,05,31,01,02,12.20
2016,05,31,01,03,12.20
2016,05,31,01,04,12.10
2016,05,31,01,05,12.00
2016,05,31,01,06,12.00
2016,05,31,01,07,12.00
2016,05,31,01,08,11.90
2016,05,31,01,09,11.90
2016,05,31,01,10,11.90
2016,05,31,01,11,11.90
2016,05,31,01,12,11.90
2016,05,31,01,13,11.80
2016,05,31,01,14,11.80
2016,05,31,01,15,11.80
2016,05,31,01,16,11.80
2016,05,31,01,17,11.80
2016,05,31,01,18,11.80
2016,05,31,01,19,11.80
2016,05,31,01,20,11.80
2016,05,31,01,21,11.80
2016,05,31,01,22,11.80
2016,05,31,01,23,11.80
2016,05,31,01,24,11.80
2016,05,31,01,25,11.80
2016,05,31,01,26,11.80
2016,05,31,01,27,11.80
2016,05,31,01,28,11.80
2016,05,31,01,29,11.80
2016,05,31,01,30,11.80
2016,05,31,01,31,11.80
2016,05,31,01,32,11.80
2016,05,31,01,33,11.80
2016,05,31,01,34,11.90
2016,05,31,01,35,11.90
2016,05,31,01,36,11.90
2016,05,31,01,37,11.90
2016,05,31,01,38,12.00
2016,05,31,01,39,12.00
2016,05,31,01,40,12.00
2016,05,31,01,41,12.00
2016,05,31,01,42,12.00
2016,05,31,01,43,12.00
2016,05,31,01,44,12.00
2016,05,31,01,45,12.00
2016,05,31,01,46,12.00
2016,05,31,01,47,12.00
2016,05,31,01,48,12.00
2016,05,31,01,49,12.00
2016,05,31,01,50,12.00
2016,05,31,01,51,12.00
2016,05,31,01,52,12.00
2016,05,31,01,53,12.00
2016,05,31,01,54,12.00
2016,05,31,01,55,12.00
2016,05,31,01,56,12.00
2016,05,31,01,57,12.00
2016,05,31,01,58,12.10
2016,05,31,01,59,12.10
2016,05,31,02,00,12.10
2016,05,31,02,01,12.10
2016,05,31,02,02,12.20
2016,05,31,02,03,12.20
2016,05,31,02,04,12.20
2016,05,31,02,05,12.30
2016,05,31,02,06,12.30
2016,05,31,02,07,12.30
2016,05,31,02,08,12.30
2016,05,31,02,09,12.30
2016,05,31,02,10,12.30
2016,05,31,02,11,12.40
2016,05,31,02,12,12.40
2016,05,31,02,13,12.40
2016,05,31,02,14,12.40
2016,05,31,02,15,12.40
2016,05,31,02,16,12.40
2016,05,31,02,17,12.50
2016,05,31,02,18,12.50
2016,05,31,02,19,12.50
2016,05,31,02,20,12.50
2016,05,31,02,21,12.50
2016,05,31,02,22,12.60
2016,05,31,02,23,12.60
2016,05,31,02,24,12.60
2016,05,31,02,25,12.60
2016,05,31,02,26,12.60
2016,05,31,02,27,12.70
2016,05,31,02,28,12.70
2016,05,31,02,29,12.70
2016,05,31,02,30,12.70
2016,05,31,02,31,12.70
2016,05,31,02,32,12.70
2016,05,31,02,33,12.70
2016,05,31,02,34,12.80
2016,05,31,02,35,12.80
2016,05,31,02,36,12.80
2016,05,31,02,37,12.80
2016,05,31,02,38,12.80
2016,05,31,02,39,12.80
2016,05,31,02,40,12.90
2016,05,31,02,41,12.90
2016,05,31,02,42,12.90
2016,05,31,02,43,12.90
2016,05,31,02,44,12.90
2016,05,31,02,45,12.90
2016,05,31,02,46,12.90
2016,05,31,02,47,12.90
2016,05,31,02,48,12.90
2016,05,31,02,49,12.90
2016,05,31,02,50,13.00
2016,05,31,02,51,13.00
2016,05,31,02,52,13.00
2016,05,31,02,53,13.00
2016,05,31,02,54,13.00
2016,05,31,02,55,13.00
2016,05,31,02,56,13.10
2016,05,31,02,57,13.10
2016,05,31,02,58,13.10
2016,05,31,02,59,13.10
2016,05,31,03,00,13.20
2016,05,31,03,01,13.20
2016,05,31,03,02,13.20
2016,05,31,03,03,13.20
2016,05,31,03,04,13.20
2016,05,31,03,05,13.30
2016,05,31,03,06,13.20
2016,05,31,03,07,13.30
2016,05,31,03,08,13.20
2016,05,31,03,09,13.20
2016,05,31,03,10,13.30
2016,05,31,03,11,13.30
2016,05,31,03,12,13.30
2016,05,31,03,13,13.30
2016,05,31,03,14,13.30
2016,05,31,03,15,13.40
2016,05,31,03,16,13.40
2016,05,31,03,17,13.40
2016,05,31,03,18,13.30
2016,05,31,03,19,13.30
2016,05,31,03,20,13.20
2016,05,31,03,21,13.20
2016,05,31,03,22,13.10
2016,05,31,03,23,13.10
2016,05,31,03,24,13.00
2016,05,31,03,25,13.00
2016,05,31,03,26,12.90
2016,05,31,03,27,12.90
2016,05,31,03,28,12.80
2016,05,31,03,29,12.80
2016,05,31,03,30,12.80
2016,05,31,03,31,12.80
2016,05,31,03,32,12.70
2016,05,31,03,33,12.70
2016,05,31,03,34,12.60
2016,05,31,03,35,12.60
2016,05,31,03,36,12.50
2016,05,31,03,37,12.50
2016,05,31,03,38,12.50
2016,05,31,03,39,12.50
2016,05,31,03,40,12.40
2016,05,31,03,41,12.40
2016,05,31,03,42,12.40
2016,05,31,03,43,12.40
2016,05,31,03,44,12.30
2016,05,31,03,45,12.30
2016,05,31,03,46,12.30
2016,05,31,03,47,12.30
2016,05,31,03,48,12.30
2016,05,31,03,49,12.30
2016,05,31,03,50,12.30
2016,05,31,03,51,12.30
2016,05,31,03,52,12.20
2016,05,31,03,53,12.20
2016,05,31,03,54,12.10
2016,05,31,03,55,12.10
2016,05,31,03,56,12.10
2016,05,31,03,57,12.10
2016,05,31,03,58,12.00
2016,05,31,03,59,12.00
2016,05,31,04,00,12.00
2016,05,31,04,01,12.00
2016,05,31,04,02,12.00
2016,05,31,04,03,12.00
2016,05,31,04,04,12.00
2016,05,31,04,05,11.90
2016,05,31,04,06,11.90
2016,05,31,04,07,11.90
2016,05,31,04,08,11.90
2016,05,31,04,09,11.90
2016,05,31,04,10,11.90
2016,05,31,04,11,11.90
2016,05,31,04,12,11.90
2016,05,31,04,13,11.90
2016,05,31,04,14,11.90
2016,05,31,04,15,11.90
2016,05,31,04,16,11.90
2016,05,31,04,17,11.90
2016,05,31,04,18,11.90
2016,05,31,04,19,11.90
2016,05,31,04,20,11.90
2016,05,31,04,21,11.90
2016,05,31,04,22,12.00
2016,05,31,04,23,12.00
2016,05,31,04,24,12.00
2016,05,31,04,25,12.00
2016,05,31,04,26,11.90
2016,05,31,04,27,11.90
2016,05,31,04,28,11.90
2016,05,31,04,29,11.90
2016,05,31,04,30,11.90
2016,05,31,04,31,11.90
2016,05,31,04,32,11.90
2016,05,31,04,33,11.90
2016,05,31,04,34,12.00
2016,05,31,04,35,12.00
2016,05,31,04,36,12.00
2016,05,31,04,37,12.00
2016,05,31,04,38,12.00
2016,05,31,04,39,12.00
2016,05,31,04,40,12.00
2016,05,31,04,41,11.90
2016,05,31,04,42,11.90
2016,05,31,04,43,11.90
2016,05,31,04,44,11.90
2016,05,31,04,45,11.90
2016,05,31,04,46,11.80
2016,05,31,04,47,11.80
2016,05,31,04,48,11.80
2016,05,31,04,49,11.80
2016,05,31,04,50,11.80
2016,05,31,04,51,11.80
2016,05,31,04,52,11.80
2016,05,31,04,53,11.80
2016,05,31,04,54,11.80
2016,05,31,04,55,11.70
2016,05,31,04,56,11.70
2016,05,31,04,57,11.60
2016,05,31,04,58,11.60
2016,05,31,04,59,11.60
2016,05,31,05,00,11.60
2016,05,31,05,01,11.70
2016,05,31,05,02,11.70
2016,05,31,05,03,11.70
2016,05,31,05,04,11.70
2016,05,31,05,05,11.70
2016,05,31,05,06,11.70
2016,05,31,05,07,11.70
2016,05,31,05,08,11.80
2016,05,31,05,09,11.80
2016,05,31,05,10,11.80
2016,05,31,05,11,11.80
2016,05,31,05,12,11.80
2016,05,31,05,13,11.80
2016,05,31,05,14,11.80
2016,05,31,05,15,11.80
2016,05,31,05,16,11.80
2016,05,31,05,17,11.80
2016,05,31,05,18,11.80
2016,05,31,05,19,11.80
2016,05,31,05,20,11.80
2016,05,31,05,21,11.80
2016,05,31,05,22,11.90
2016,05,31,05,23,11.90
2016,05,31,05,24,11.90
2016,05,31,05,25,11.90
2016,05,31,05,26,11.90
2016,05,31,05,27,11.90
2016,05,31,05,28,11.90
2016,05,31,05,29,11.90
2016,05,31,05,30,12.00
2016,05,31,05,31,12.00
2016,05,31,05,32,12.00
2016,05,31,05,33,11.90
2016,05,31,05,34,11.90
2016,05,31,05,35,11.90
2016,05,31,05,36,11.90
2016,05,31,05,37,11.90
2016,05,31,05,38,11.90
2016,05,31,05,39,11.90
2016,05,31,05,40,11.90
2016,05,31,05,41,11.90
2016,05,31,05,42,11.90
2016,05,31,05,43,11.80
2016,05,31,05,44,11.80
2016,05,31,05,45,11.80
2016,05,31,05,46,11.80
2016,05,31,05,47,11.80
2016,05,31,05,48,11.80
2016,05,31,05,49,11.80
2016,05,31,05,50,11.80
2016,05,31,05,51,11.80
2016,05,31,05,52,11.80
2016,05,31,05,53,11.80
2016,05,31,05,54,11.80
2016,05,31,05,55,11.80
2016,05,31,05,56,11.80
2016,05,31,05,57,11.80
2016,05,31,05,58,11.80
2016,05,31,05,59,11.80
2016,05,31,06,00,11.80
2016,05,31,06,01,11.80
2016,05,31,06,02,11.80
2016,05,31,06,03,11.80
2016,05,31,06,04,11.80
2016,05,31,06,05,11.80
2016,05,31,06,06,11.80
2016,05,31,06,07,11.80
2016,05,31,06,08,11.80
2016,05,31,06,09,11.80
2016,05,31,06,10,11.80
2016,05,31,06,11,11.80
2016,05,31,06,12,11.80
2016,05,31,06,13,11.80
2016,05,31,06,14,11.80
2016,05,31,06,15,11.90
2016,05,31,06,16,11.90
2016,05,31,06,17,11.90
2016,05,31,06,18,11.90
2016,05,31,06,19,11.90
2016,05,31,06,20,12.00
2016,05,31,06,21,12.00
2016,05,31,06,22,12.00
2016,05,31,06,23,12.00
2016,05,31,06,24,12.00
2016,05,31,06,25,12.10
2016,05,31,06,26,12.10
2016,05,31,06,27,12.10
2016,05,31,06,28,12.20
2016,05,31,06,29,12.20
2016,05,31,06,30,12.20
2016,05,31,06,31,12.20
2016,05,31,06,32,12.20
2016,05,31,06,33,12.30
2016,05,31,06,34,12.30
2016,05,31,06,35,12.30
2016,05,31,06,36,12.30
2016,05,31,06,37,12.30
2016,05,31,06,38,12.30
2016,05,31,06,39,12.30
2016,05,31,06,40,12.40
2016,05,31,06,41,12.40
2016,05,31,06,42,12.40
2016,05,31,06,43,12.40
2016,05,31,06,44,12.50
2016,05,31,06,45,12.60
2016,05,31,06,46,12.70
2016,05,31,06,47,12.70
2016,05,31,06,48,12.80
2016,05,31,06,49,12.80
2016,05,31,06,50,12.80
2016,05,31,06,51,12.90
2016,05,31,06,52,13.00
2016,05,31,06,53,13.00
2016,05,31,06,54,13.10
2016,05,31,06,55,13.10
2016,05,31,06,56,13.20
2016,05,31,06,57,13.20
2016,05,31,06,58,13.30
2016,05,31,06,59,13.30
2016,05,31,07,00,13.30
2016,05,31,07,01,13.30
2016,05,31,07,02,13.30
2016,05,31,07,03,13.40
2016,05,31,07,04,13.40
2016,05,31,07,05,13.40
2016,05,31,07,06,13.50
2016,05,31,07,07,13.50
2016,05,31,07,08,13.60
2016,05,31,07,09,13.60
2016,05,31,07,10,13.70
2016,05,31,07,11,13.70
2016,05,31,07,12,13.70
2016,05,31,07,13,13.80
2016,05,31,07,14,13.90
2016,05,31,07,15,14.00
2016,05,31,07,16,14.10
2016,05,31,07,17,14.20
2016,05,31,07,18,14.30
2016,05,31,07,19,14.40
2016,05,31,07,20,14.40
2016,05,31,07,21,14.40
2016,05,31,07,22,14.50
2016,05,31,07,23,14.50
2016,05,31,07,24,14.50
2016,05,31,07,25,14.50
2016,05,31,07,26,14.60
2016,05,31,07,27,14.60
2016,05,31,07,28,14.60
2016,05,31,07,29,14.70
2016,05,31,07,30,14.70
2016,05,31,07,31,14.80
2016,05,31,07,32,14.80
2016,05,31,07,33,14.80
2016,05,31,07,34,14.90
2016,05,31,07,35,14.90
2016,05,31,07,36,15.00
2016,05,31,07,37,15.00
2016,05,31,07,38,15.10
2016,05,31,07,39,15.20
2016,05,31,07,40,15.20
2016,05,31,07,41,15.20
2016,05,31,07,42,15.20
2016,05,31,07,43,15.20
2016,05,31,07,44,15.20
2016,05,31,07,45,15.20
2016,05,31,07,46,15.20
2016,05,31,07,47,15.20
2016,05,31,07,48,15.20
2016,05,31,07,49,15.20
2016,05,31,07,50,15.20
2016,05,31,07,51,15.20
2016,05,31,07,52,15.30
2016,05,31,07,53,15.20
2016,05,31,07,54,15.20
2016,05,31,07,55,15.20
2016,05,31,07,56,15.20
2016,05,31,07,57,15.30
2016,05,31,07,58,15.30
2016,05,31,07,59,15.30
2016,05,31,08,00,15.30
2016,05,31,08,01,15.40
2016,05,31,08,02,15.40
2016,05,31,08,03,15.40
2016,05,31,08,04,15.40
2016,05,31,08,05,15.50
2016,05,31,08,06,15.50
2016,05,31,08,07,15.50
2016,05,31,08,08,15.50
2016,05,31,08,09,15.50
2016,05,31,08,10,15.50
2016,05,31,08,11,15.40
2016,05,31,08,12,15.40
2016,05,31,08,13,15.40
2016,05,31,08,14,15.40
2016,05,31,08,15,15.40
2016,05,31,08,16,15.30
2016,05,31,08,17,15.30
2016,05,31,08,18,15.20
2016,05,31,08,19,15.10
2016,05,31,08,20,15.10
2016,05,31,08,21,15.10
2016,05,31,08,22,15.10
2016,05,31,08,23,15.10
2016,05,31,08,24,15.10
2016,05,31,08,25,15.10
2016,05,31,08,26,15.20
2016,05,31,08,27,15.00
2016,05,31,08,28,14.90
2016,05,31,08,29,14.90
2016,05,31,08,30,14.90
2016,05,31,08,31,14.90
2016,05,31,08,32,15.00
2016,05,31,08,33,15.10
2016,05,31,08,34,15.10
2016,05,31,08,35,15.20
2016,05,31,08,36,15.20
2016,05,31,08,37,15.20
2016,05,31,08,38,15.20
2016,05,31,08,39,15.20
2016,05,31,08,40,15.20
2016,05,31,08,41,15.30
2016,05,31,08,42,15.30
2016,05,31,08,43,15.30
2016,05,31,08,44,15.30
2016,05,31,08,45,15.20
2016,05,31,08,46,15.10
2016,05,31,08,47,15.10
2016,05,31,08,48,15.00
2016,05,31,08,49,14.90
2016,05,31,08,50,14.90
2016,05,31,08,51,14.80
2016,05,31,08,52,14.80
2016,05,31,08,53,14.80
2016,05,31,08,54,14.80
2016,05,31,08,55,14.70
2016,05,31,08,56,14.70
2016,05,31,08,57,14.70
2016,05,31,08,58,14.60
2016,05,31,08,59,14.60
2016,05,31,09,00,14.70
2016,05,31,09,01,14.80
2016,05,31,09,02,15.00
2016,05,31,09,03,15.10
2016,05,31,09,04,15.20
2016,05,31,09,05,15.30
2016,05,31,09,06,15.30
2016,05,31,09,07,15.50
2016,05,31,09,08,15.60
2016,05,31,09,09,15.70
2016,05,31,09,10,15.70
2016,05,31,09,11,15.80
2016,05,31,09,12,15.70
2016,05,31,09,13,15.70
2016,05,31,09,14,15.80
2016,05,31,09,15,15.80
2016,05,31,09,16,16.00
2016,05,31,09,17,16.20
2016,05,31,09,18,16.30
2016,05,31,09,19,16.40
2016,05,31,09,20,16.40
2016,05,31,09,21,16.30
2016,05,31,09,22,16.20
2016,05,31,09,23,16.00
2016,05,31,09,24,16.00
2016,05,31,09,25,16.10
2016,05,31,09,26,15.90
2016,05,31,09,27,15.90
2016,05,31,09,28,15.80
2016,05,31,09,29,15.80
2016,05,31,09,30,15.70
2016,05,31,09,31,15.60
2016,05,31,09,32,15.60
2016,05,31,09,33,15.60
2016,05,31,09,34,15.60
2016,05,31,09,35,15.50
2016,05,31,09,36,15.50
2016,05,31,09,37,15.50
2016,05,31,09,38,15.50
2016,05,31,09,39,15.60
2016,05,31,09,40,15.70
2016,05,31,09,41,15.80
2016,05,31,09,42,15.80
2016,05,31,09,43,15.90
2016,05,31,09,44,16.10
2016,05,31,09,45,16.20
2016,05,31,09,46,16.20
2016,05,31,09,47,16.30
2016,05,31,09,48,16.30
2016,05,31,09,49,16.20
2016,05,31,09,50,16.20
2016,05,31,09,51,16.10
2016,05,31,09,52,16.10
2016,05,31,09,53,16.10
2016,05,31,09,54,16.20
2016,05,31,09,55,16.30
2016,05,31,09,56,16.40
2016,05,31,09,57,16.40
2016,05,31,09,58,16.50
2016,05,31,09,59,16.60
2016,05,31,10,00,16.60
2016,05,31,10,01,16.70
2016,05,31,10,02,16.80
2016,05,31,10,03,16.80
2016,05,31,10,04,16.80
2016,05,31,10,05,16.70
2016,05,31,10,06,16.70
2016,05,31,10,07,16.60
2016,05,31,10,08,16.60
2016,05,31,10,09,16.60
2016,05,31,10,10,16.40
2016,05,31,10,11,16.20
2016,05,31,10,12,16.20
2016,05,31,10,13,16.20
2016,05,31,10,14,16.20
2016,05,31,10,15,16.30
2016,05,31,10,16,16.30
2016,05,31,10,17,16.30
2016,05,31,10,18,16.30
2016,05,31,10,19,16.40
2016,05,31,10,20,16.40
2016,05,31,10,21,16.40
2016,05,31,10,22,16.40
2016,05,31,10,23,16.40
2016,05,31,10,24,16.40
2016,05,31,10,25,16.50
2016,05,31,10,26,16.40
2016,05,31,10,27,16.40
2016,05,31,10,28,16.40
2016,05,31,10,29,16.40
2016,05,31,10,30,16.40
2016,05,31,10,31,16.50
2016,05,31,10,32,16.60
2016,05,31,10,33,16.70
2016,05,31,10,34,16.70
2016,05,31,10,35,16.70
2016,05,31,10,36,16.70
2016,05,31,10,37,16.70
2016,05,31,10,38,16.80
2016,05,31,10,39,16.90
2016,05,31,10,40,17.00
2016,05,31,10,41,17.00
2016,05,31,10,42,17.10
2016,05,31,10,43,17.10
2016,05,31,10,44,17.10
2016,05,31,10,45,17.20
2016,05,31,10,46,17.20
2016,05,31,10,47,17.20
2016,05,31,10,48,17.20
2016,05,31,10,49,17.30
2016,05,31,10,50,17.30
2016,05,31,10,51,17.40
2016,05,31,10,52,17.50
2016,05,31,10,53,17.70
2016,05,31,10,54,17.60
2016,05,31,10,55,17.50
2016,05,31,10,56,17.40
2016,05,31,10,57,17.40
2016,05,31,10,58,17.40
2016,05,31,10,59,17.50
2016,05,31,11,00,17.50
2016,05,31,11,01,17.50
2016,05,31,11,02,17.40
2016,05,31,11,03,17.40
2016,05,31,11,04,17.40
2016,05,31,11,05,17.40
2016,05,31,11,06,17.50
2016,05,31,11,07,17.60
2016,05,31,11,08,17.70
2016,05,31,11,09,17.70
2016,05,31,11,10,17.70
2016,05,31,11,11,17.70
2016,05,31,11,12,17.80
2016,05,31,11,13,17.70
2016,05,31,11,14,17.80
2016,05,31,11,15,17.80
2016,05,31,11,16,17.70
2016,05,31,11,17,17.70
2016,05,31,11,18,17.70
2016,05,31,11,19,17.70
2016,05,31,11,20,17.70
2016,05,31,11,21,17.70
2016,05,31,11,22,17.70
2016,05,31,11,23,17.60
2016,05,31,11,24,17.70
2016,05,31,11,25,17.70
2016,05,31,11,26,17.80
2016,05,31,11,27,17.90
2016,05,31,11,28,17.90
2016,05,31,11,29,17.90
2016,05,31,11,30,17.90
2016,05,31,11,31,17.90
2016,05,31,11,32,18.00
2016,05,31,11,33,18.10
2016,05,31,11,34,18.20
2016,05,31,11,35,18.30
2016,05,31,11,36,18.30
2016,05,31,11,37,18.40
2016,05,31,11,38,18.40
2016,05,31,11,39,18.30
2016,05,31,11,40,18.20
2016,05,31,11,41,18.20
2016,05,31,11,42,18.20
2016,05,31,11,43,18.20
2016,05,31,11,44,18.20
2016,05,31,11,45,18.20
2016,05,31,11,46,18.20
2016,05,31,11,47,18.20
2016,05,31,11,48,18.20
2016,05,31,11,49,18.20
2016,05,31,11,50,18.20
2016,05,31,11,51,18.40
2016,05,31,11,52,18.50
2016,05,31,11,53,18.60
2016,05,31,11,54,18.70
2016,05,31,11,55,18.70
2016,05,31,11,56,18.70
2016,05,31,11,57,18.60
2016,05,31,11,58,18.60
2016,05,31,11,59,18.50
2016,05,31,12,00,18.50
2016,05,31,12,01,18.60
2016,05,31,12,02,18.60
2016,05,31,12,03,18.70
2016,05,31,12,04,18.80
2016,05,31,12,05,18.80
2016,05,31,12,06,18.80
2016,05,31,12,07,18.90
2016,05,31,12,08,18.90
2016,05,31,12,09,18.90
2016,05,31,12,10,18.90
2016,05,31,12,11,18.90
2016,05,31,12,12,18.90
2016,05,31,12,13,19.00
2016,05,31,12,14,19.10
2016,05,31,12,15,19.10
2016,05,31,12,16,19.00
2016,05,31,12,17,18.90
2016,05,31,12,18,18.90
2016,05,31,12,19,18.90
2016,05,31,12,20,18.90
2016,05,31,12,21,18.80
2016,05,31,12,22,18.60
2016,05,31,12,23,18.60
2016,05,31,12,24,18.50
2016,05,31,12,25,18.40
2016,05,31,12,26,18.30
2016,05,31,12,27,18.30
2016,05,31,12,28,18.10
2016,05,31,12,29,17.90
2016,05,31,12,30,17.80
2016,05,31,12,31,17.70
2016,05,31,12,32,17.50
2016,05,31,12,33,17.30
2016,05,31,12,34,17.20
2016,05,31,12,35,17.10
2016,05,31,12,36,17.20
2016,05,31,12,37,17.40
2016,05,31,12,38,17.40
2016,05,31,12,39,17.50
2016,05,31,12,40,17.60
2016,05,31,12,41,17.70
2016,05,31,12,42,17.80
2016,05,31,12,43,17.90
2016,05,31,12,44,18.10
2016,05,31,12,45,18.20
2016,05,31,12,46,18.20
2016,05,31,12,47,18.20
2016,05,31,12,48,18.10
2016,05,31,12,49,18.00
2016,05,31,12,50,17.90
2016,05,31,12,51,18.00
2016,05,31,12,52,18.10
2016,05,31,12,53,18.00
2016,05,31,12,54,18.10
2016,05,31,12,55,18.10
2016,05,31,12,56,18.20
2016,05,31,12,57,18.20
2016,05,31,12,58,18.30
2016,05,31,12,59,18.30
2016,05,31,13,00,18.40
2016,05,31,13,01,18.40
2016,05,31,13,02,18.40
2016,05,31,13,03,18.20
2016,05,31,13,04,18.30
2016,05,31,13,05,18.40
2016,05,31,13,06,18.40
2016,05,31,13,07,18.50
2016,05,31,13,08,18.40
2016,05,31,13,09,18.40
2016,05,31,13,10,18.40
2016,05,31,13,11,18.40
2016,05,31,13,12,18.40
2016,05,31,13,13,18.50
2016,05,31,13,14,18.50
2016,05,31,13,15,18.40
2016,05,31,13,16,18.30
2016,05,31,13,17,18.20
2016,05,31,13,18,18.20
2016,05,31,13,19,18.20
2016,05,31,13,20,18.20
2016,05,31,13,21,18.20
2016,05,31,13,22,18.10
2016,05,31,13,23,18.00
2016,05,31,13,24,17.90
2016,05,31,13,25,18.00
2016,05,31,13,26,18.10
2016,05,31,13,27,18.20
2016,05,31,13,28,18.30
2016,05,31,13,29,18.30
2016,05,31,13,30,18.40
2016,05,31,13,31,18.50
2016,05,31,13,32,18.40
2016,05,31,13,33,18.30
2016,05,31,13,34,18.30
2016,05,31,13,35,18.20
2016,05,31,13,36,18.30
2016,05,31,13,37,18.40
2016,05,31,13,38,18.40
2016,05,31,13,39,18.50
2016,05,31,13,40,18.40
2016,05,31,13,41,18.40
2016,05,31,13,42,18.50
2016,05,31,13,43,18.40
2016,05,31,13,44,18.30
2016,05,31,13,45,18.20
2016,05,31,13,46,18.20
2016,05,31,13,47,18.20
2016,05,31,13,48,18.30
2016,05,31,13,49,18.30
2016,05,31,13,50,18.40
2016,05,31,13,51,18.60
2016,05,31,13,52,18.70
2016,05,31,13,53,18.70
2016,05,31,13,54,18.70
2016,05,31,13,55,18.80
2016,05,31,13,56,18.80
2016,05,31,13,57,18.80
2016,05,31,13,58,18.70
2016,05,31,13,59,18.70
2016,05,31,14,00,18.80
2016,05,31,14,01,18.80
2016,05,31,14,02,18.80
2016,05,31,14,03,18.80
2016,05,31,14,04,18.90
2016,05,31,14,05,18.90
2016,05,31,14,06,19.00
2016,05,31,14,07,19.10
2016,05,31,14,08,19.10
2016,05,31,14,09,19.10
2016,05,31,14,10,19.10
2016,05,31,14,11,19.00
2016,05,31,14,12,18.90
2016,05,31,14,13,18.80
2016,05,31,14,14,18.80
2016,05,31,14,15,18.70
2016,05,31,14,16,18.60
2016,05,31,14,17,18.60
2016,05,31,14,18,18.60
2016,05,31,14,19,18.70
2016,05,31,14,20,18.70
2016,05,31,14,21,18.70
2016,05,31,14,22,18.70
2016,05,31,14,23,18.80
2016,05,31,14,24,18.80
2016,05,31,14,25,18.90
2016,05,31,14,26,18.90
2016,05,31,14,27,18.90
2016,05,31,14,28,18.90
2016,05,31,14,29,18.90
2016,05,31,14,30,18.90
2016,05,31,14,31,18.90
2016,05,31,14,32,18.90
2016,05,31,14,33,18.90
2016,05,31,14,34,19.00
2016,05,31,14,35,19.10
2016,05,31,14,36,19.20
2016,05,31,14,37,19.30
2016,05,31,14,38,19.30
2016,05,31,14,39,19.20
2016,05,31,14,40,19.20
2016,05,31,14,41,19.30
2016,05,31,14,42,19.40
2016,05,31,14,43,19.40
2016,05,31,14,44,19.40
2016,05,31,14,45,19.50
2016,05,31,14,46,19.50
2016,05,31,14,47,19.50
2016,05,31,14,48,19.50
2016,05,31,14,49,19.60
2016,05,31,14,50,19.60
2016,05,31,14,51,19.50
2016,05,31,14,52,19.50
2016,05,31,14,53,19.50
2016,05,31,14,54,19.60
2016,05,31,14,55,19.70
2016,05,31,14,56,19.70
2016,05,31,14,57,19.70
2016,05,31,14,58,19.70
2016,05,31,14,59,19.70
2016,05,31,15,00,19.60
2016,05,31,15,01,19.40
2016,05,31,15,02,19.40
2016,05,31,15,03,19.30
2016,05,31,15,04,19.40
2016,05,31,15,05,19.50
2016,05,31,15,06,19.50
2016,05,31,15,07,19.50
2016,05,31,15,08,19.50
2016,05,31,15,09,19.50
2016,05,31,15,10,19.50
2016,05,31,15,11,19.50
2016,05,31,15,12,19.50
2016,05,31,15,13,19.50
2016,05,31,15,14,19.60
2016,05,31,15,15,19.70
2016,05,31,15,16,19.70
2016,05,31,15,17,19.80
2016,05,31,15,18,19.80
2016,05,31,15,19,19.80
2016,05,31,15,20,19.80
2016,05,31,15,21,19.80
2016,05,31,15,22,19.70
2016,05,31,15,23,19.70
2016,05,31,15,24,19.70
2016,05,31,15,25,19.60
2016,05,31,15,26,19.60
2016,05,31,15,27,19.50
2016,05,31,15,28,19.60
2016,05,31,15,29,19.60
2016,05,31,15,30,19.70
2016,05,31,15,31,19.70
2016,05,31,15,32,19.80
2016,05,31,15,33,19.80
2016,05,31,15,34,19.80
2016,05,31,15,35,19.80
2016,05,31,15,36,19.80
2016,05,31,15,37,19.80
2016,05,31,15,38,19.80
2016,05,31,15,39,19.90
2016,05,31,15,40,19.90
2016,05,31,15,41,19.90
2016,05,31,15,42,19.90
2016,05,31,15,43,19.80
2016,05,31,15,44,19.80
2016,05,31,15,45,19.80
2016,05,31,15,46,19.90
2016,05,31,15,47,19.90
2016,05,31,15,48,19.90
2016,05,31,15,49,19.80
2016,05,31,15,50,19.80
2016,05,31,15,51,19.80
2016,05,31,15,52,19.80
2016,05,31,15,53,19.80
2016,05,31,15,54,19.80
2016,05,31,15,55,19.90
2016,05,31,15,56,19.80
2016,05,31,15,57,19.90
2016,05,31,15,58,19.80
2016,05,31,15,59,19.70
2016,05,31,16,00,19.60
2016,05,31,16,01,19.50
2016,05,31,16,02,19.50
2016,05,31,16,03,19.40
2016,05,31,16,04,19.40
2016,05,31,16,05,19.30
2016,05,31,16,06,19.40
2016,05,31,16,07,19.30
2016,05,31,16,08,19.20
2016,05,31,16,09,19.20
2016,05,31,16,10,19.10
2016,05,31,16,11,19.10
2016,05,31,16,12,19.00
2016,05,31,16,13,18.90
2016,05,31,16,14,19.00
2016,05,31,16,15,19.10
2016,05,31,16,16,19.10
2016,05,31,16,17,19.20
2016,05,31,16,18,19.30
2016,05,31,16,19,19.30
2016,05,31,16,20,19.30
2016,05,31,16,21,19.30
2016,05,31,16,22,19.30
2016,05,31,16,23,19.40
2016,05,31,16,24,19.40
2016,05,31,16,25,19.40
2016,05,31,16,26,19.50
2016,05,31,16,27,19.50
2016,05,31,16,28,19.60
2016,05,31,16,29,19.70
2016,05,31,16,30,19.60
2016,05,31,16,31,19.60
2016,05,31,16,32,19.60
2016,05,31,16,33,19.70
2016,05,31,16,34,19.80
2016,05,31,16,35,19.80
2016,05,31,16,36,19.90
2016,05,31,16,37,19.80
2016,05,31,16,38,19.80
2016,05,31,16,39,19.70
2016,05,31,16,40,19.70
2016,05,31,16,41,19.80
2016,05,31,16,42,19.80
2016,05,31,16,43,19.90
2016,05,31,16,44,19.80
2016,05,31,16,45,19.80
2016,05,31,16,46,19.90
2016,05,31,16,47,19.90
2016,05,31,16,48,19.90
2016,05,31,16,49,19.90
2016,05,31,16,50,19.90
2016,05,31,16,51,19.90
2016,05,31,16,52,19.90
2016,05,31,16,53,19.90
2016,05,31,16,54,19.90
2016,05,31,16,55,19.80
2016,05,31,16,56,19.80
2016,05,31,16,57,19.80
2016,05,31,16,58,19.80
2016,05,31,16,59,19.80
2016,05,31,17,00,19.80
2016,05,31,17,01,19.80
2016,05,31,17,02,19.80
2016,05,31,17,03,19.90
2016,05,31,17,04,19.90
2016,05,31,17,05,19.90
2016,05,31,17,06,20.10
2016,05,31,17,07,20.10
2016,05,31,17,08,20.20
2016,05,31,17,09,20.20
2016,05,31,17,10,20.20
2016,05,31,17,11,20.20
2016,05,31,17,12,20.10
2016,05,31,17,13,20.00
2016,05,31,17,14,19.90
2016,05,31,17,15,19.90
2016,05,31,17,16,19.90
2016,05,31,17,17,20.00
2016,05,31,17,18,20.10
2016,05,31,17,19,20.10